Location: Hernandez
(10.3704°N, 67.2181°W)
Time: 18:04:04
(UTC+00:00)

Cosmos 2242 Rocket - Pass Details

Date: 13 April 2024
Orbit: 616 x 648 km, 82.5° (Epoch: 23 May)

Event Time Altitude Azimuth Distance (km) Brightness Sun altitude
Rises 22:54:19 0° 1° (N) 2,886 7.1 -4.4°
Reaches altitude 10° 22:56:33 10° 4° (N) 1,984 6.3 -4.9°
Maximum altitude 23:00:55 64° 86° (E) 692 3.6 -6.0°
Drops below altitude 10° 23:05:18 10° 167° (SSE) 2,004 5.9 -7.0°
Sets 23:07:34 0° 170° (S) 2,917 6.8 -7.6°
